[[{"header":{"parameterUnit":"m.s-1","parameterCategory":2,"la1":30.2991,"la2":30.254,"lo1":-89.0895,"lo2":-89.0444,"dy":0.0017,"dx":0.0017,"nx":28,"ny":28,"refTime":"2025-06-14T21:00:00:Z","depth":"0","parameterNumber":2,"parameterNumberName":"U-component_of_CURRENTS"},"data":[0,0,0,0,0,0,0,0,0,0,0,0,0,0,0,0,0,0,0,0,0,0,0,0,0,0,0,0,0,0,0,0,0,0,0,0,0,0,0,0,0,0,0,0,0,0,0,0,0,0,0,0,0,0,0,0,0,0,0.1865,0.1866,0,0.1865,0.1864,0.1864,0.1839,0.1839,0.1839,0.1838,0.1782,0.178,0.1779,0,0,0,0,0,0,0,0,0,0,0,0,0,0.1847,0.1847,0.1865,0.1866,0.1866,0.1865,0.1864,0.1864,0.1839,0.1839,0.1838,0.1838,0.1782,0.1781,0.1779,0,0,0,0,0,0,0,0,0,0,0,0,0,0.1847,0.1847,0.1865,0.1857,0.1857,0.1865,0.1864,0.1864,0.1839,0.1839,0.1838,0.1838,0.1783,0.1781,0.1779,0.1772,0,0,0.1773,0.1772,0,0,0,0,0,0,0,0,0.1847,0.1847,0.1858,0.1858,0.1858,0.1856,0.1837,0.1832,0.1839,0.184,0.1838,0.1838,0.1805,0.1801,0.1795,0.1769,0.1767,0.1772,0.1771,0.177,0.177,0,0,0,0,0,0,0,0.1847,0.1847,0.186,0.1859,0.1859,0.1855,0.1854,0.1836,0.1819,0.184,0.184,0.1848,0.1804,0.1797,0.1794,0.1766,0.1772,0.1771,0.1769,0.1769,0.1785,0.1787,0,0,0,0,0,0,0.1857,0.1847,0.186,0.1861,0.1857,0.1856,0.1855,0.1853,0.1821,0.1817,0.1848,0.1847,0.1801,0.1796,0.1791,0.1827,0.177,0.1768,0.1767,0.1783,0.1785,0.1787,0,0,0,0,0,0,0.1857,0.1858,0.186,0.1858,0.1859,0.1857,0.1855,0.1853,0.1858,0.1828,0.1823,0.1857,0.18,0.1794,0.1793,0.1823,0.1768,0.1766,0.1782,0.1784,0.1786,0.1869,0,0,0,0,0,0,0.1856,0.1857,0.1855,0.1859,0.186,0.1882,0.1856,0.1853,0.1865,0.1863,0.1834,0.1828,0.18,0.1796,0.1791,0.1819,0.1764,0.1779,0.1783,0.1786,0.1865,0.1874,0.1883,0,0,0,0,0,0.1855,0.1851,0.1854,0.1856,0.1857,0.1884,0.1884,0.1878,0.1866,0.1878,0.1858,0.1829,0.1812,0.1796,0.1789,0.1818,0.1778,0.1782,0.1785,0.186,0.1872,0.1883,0,0,0,0,0,0,0.1838,0.1849,0.1852,0.1851,0.1878,0.1882,0.1885,0.1889,0.1882,0.1874,0.1842,0.1835,0.1849,0.1823,0.1806,0.1834,0.1793,0.1796,0.1853,0.1864,0.1873,0.1883,0.1763,0,0,0,0,0,0.1837,0.1835,0.186,0.1861,0.1875,0.1885,0.1892,0.1897,0.1896,0.1892,0.1875,0.1859,0.1858,0.1853,0.1842,0.185,0.1855,0.1868,0.1877,0.1885,0.1891,0.1955,0.1971,0.1799,0.1799,0.1799,0,0,0.183,0.1837,0.1835,0.1858,0.187,0.1897,0.1887,0.1908,0.1933,0.1886,0.19,0.1887,0.1868,0.1883,0.1887,0.1865,0.1933,0.1889,0.1896,0.1898,0.1961,0.1977,0.1992,0.1802,0.1801,0.1801,0,0,0.1823,0.1827,0.183,0.1857,0.189,0.1906,0.192,0.194,0.1952,0.1972,0.195,0.1961,0.1945,0.1948,0.1945,0.1999,0.1981,0.1995,0.2045,0.2108,0.2123,0.2136,0.2151,0.2165,0.1997,0.1998,0.1998,0,0.1815,0.1826,0.1839,0.1861,0.1888,0.1916,0.1946,0.1967,0.1985,0.2008,0.1987,0.2009,0.1981,0.2025,0.2035,0.202,0.2038,0.2004,0.2122,0.2135,0.2147,0.2159,0.2173,0.2002,0.2002,0.2001,0.2001,0,0.1822,0.1838,0.1847,0.1884,0.1917,0.1948,0.1995,0.2028,0.2046,0.2069,0.2121,0.2103,0.2116,0.2117,0.2082,0.2158,0.2136,0.2129,0.2096,0.217,0.2176,0.219,0.2008,0.2007,0.2005,0.2004,0,0,0.1791,0.184,0.1845,0.1875,0.1936,0.1966,0.2025,0.2095,0.2142,0.2169,0.2234,0.2235,0.2235,0.2232,0.2213,0.2256,0.2336,0.2225,0.2227,0.2241,0.2452,0.2255,0.2249,0.236,0.2363,0.2366,0.2417,0,0.18,0.1837,0.1867,0.1925,0.1958,0.2016,0.2073,0.2138,0.2189,0.2255,0.2287,0.2326,0.228,0.2288,0.2332,0.2338,0.2377,0.232,0.2376,0.2376,0.2195,0.2261,0.2093,0.211,0.243,0.2432,0.2434,0,0.1808,0.1833,0.1877,0.1961,0.1983,0.2022,0.2131,0.2187,0.2292,0.2332,0.2395,0.2415,0.2473,0.2428,0.2503,0.2472,0.2464,0.247,0.2472,0.2268,0.2204,0.209,0.2122,0.2041,0.2454,0.2453,0.2451,0,0.1791,0.1852,0.1887,0.1912,0.2,0.2042,0.2101,0.2205,0.2262,0.2381,0.2424,0.2515,0.2537,0.2592,0.2559,0.2555,0.2631,0.263,0.2453,0.2438,0.2291,0.2256,0.2249,0.2698,0.2698,0.2698,0.2698,0,0.1801,0.1831,0.1877,0.1899,0.1958,0.203,0.2112,0.2188,0.2295,0.2361,0.2449,0.2502,0.2581,0.2615,0.2614,0.2546,0.2675,0.2466,0.2447,0.2309,0.2276,0.2192,0.2174,0.27,0.2699,0.2699,0.2698,0,0.1786,0.1812,0.1851,0.1924,0.1948,0.199,0.2097,0.2163,0.226,0.235,0.2387,0.2504,0.2537,0.2572,0.2635,0.2563,0.2453,0.2497,0.229,0.2242,0.1963,0.1954,0.1864,0.1829,0.2332,0.2328,0.2324,0,0.1782,0.1795,0.1847,0.1867,0.1897,0.1963,0.202,0.2131,0.2193,0.2333,0.237,0.2436,0.2452,0.2448,0.2358,0.2311,0.2291,0.2104,0.2052,0.1918,0.19,0.1868,0.1847,0.1906,0.19,0.1894,0.1889,0,0.1774,0.1781,0.1811,0.184,0.1882,0.1941,0.2018,0.2055,0.2182,0.2227,0.2294,0.2322,0.228,0.214,0.203,0.1986,0.1954,0.1979,0.1939,0.1629,0.1505,0.1469,0.1881,0.1839,0.1844,0.1848,0.1851,0.1853,0.1758,0.1766,0.1791,0.1816,0.1861,0.1909,0.1929,0.199,0.2038,0.2069,0.2159,0.2096,0.1948,0.1761,0.1709,0.1445,0.1567,0.1362,0.1386,0.1384,0.1267,0.1512,0.1373,0.1375,0.1377,0.1379,0.138,0,0.1735,0.1746,0.1772,0.1795,0.1812,0.1858,0.1919,0.1903,0.1889,0.1884,0.188,0.1645,0.1446,0.1315,0.1012,0.0885,0.0906,0.0852,0.0831,0.0865,0.1165,0.1057,0.0723,0.0723,0.0723,0.0723,0.0723,0.0723,0.1721,0.1724,0.1729,0.1727,0.1746,0.1743,0.1754,0.1714,0.1675,0.1502,0.1328,0.1262,0.1072,0.0758,0.052,0.05,0.0512,0.0399,0.0518,0.0761,0.0813,0.0863,0.076,0.0368,0.0368,0.0166,0.0164,0.0162]},{"header":{"parameterUnit":"m.s-1","parameterCategory":2,"la1":30.2991,"la2":30.254,"lo1":-89.0895,"lo2":-89.0444,"dy":0.0017,"dx":0.0017,"nx":28,"ny":28,"refTime":"2025-06-14T21:00:00:Z","depth":"0","parameterNumber":3,"parameterNumberName":"V-component_of_CURRENTS"},"data":[0,0,0,0,0,0,0,0,0,0,0,0,0,0,0,0,0,0,0,0,0,0,0,0,0,0,0,0,0,0,0,0,0,0,0,0,0,0,0,0,0,0,0,0,0,0,0,0,0,0,0,0,0,0,0,0,0,0,0.0113,0.0113,0,0.014,0.014,0.014,0.0155,0.0155,0.0155,0.0155,0.0177,0.0178,0.0179,0,0,0,0,0,0,0,0,0,0,0,0,0,0.0078,0.0079,0.0113,0.0113,0.0113,0.014,0.014,0.014,0.0155,0.0155,0.0155,0.0155,0.0177,0.0178,0.0179,0,0,0,0,0,0,0,0,0,0,0,0,0,0.0099,0.0079,0.0112,0.0123,0.0125,0.014,0.014,0.0141,0.0155,0.0155,0.0155,0.0155,0.0177,0.0178,0.0179,0.0184,0,0,0.0181,0.0182,0,0,0,0,0,0,0,0,0.0097,0.01,0.0121,0.0123,0.0124,0.0144,0.0136,0.0155,0.0155,0.0144,0.0155,0.0155,0.0165,0.0167,0.0173,0.0185,0.0186,0.0182,0.0182,0.0182,0.0183,0,0,0,0,0,0,0,0.0096,0.0099,0.0124,0.0122,0.0123,0.0128,0.0131,0.014,0.0155,0.0145,0.0146,0.0148,0.0166,0.0172,0.0174,0.0187,0.0182,0.0182,0.0183,0.0183,0.0207,0.0207,0,0,0,0,0,0,0.0091,0.0098,0.0123,0.0125,0.011,0.0129,0.0132,0.0138,0.0155,0.0157,0.0148,0.0149,0.0171,0.0173,0.0175,0.018,0.0182,0.0183,0.0184,0.0207,0.0207,0.0207,0,0,0,0,0,0,0.0091,0.0094,0.0122,0.0111,0.0115,0.013,0.0136,0.0138,0.0145,0.0157,0.016,0.0152,0.0171,0.0173,0.0182,0.0181,0.0184,0.0185,0.0207,0.0207,0.0207,0.0192,0,0,0,0,0,0,0.009,0.0093,0.0094,0.0111,0.0115,0.0133,0.0136,0.0139,0.0146,0.0147,0.0161,0.0163,0.0171,0.0181,0.0183,0.0182,0.0185,0.0206,0.0207,0.0207,0.0192,0.0192,0.0191,0,0,0,0,0,0.0088,0.0093,0.0094,0.0097,0.0117,0.0133,0.0137,0.0147,0.0146,0.0152,0.0159,0.0163,0.0184,0.0182,0.0184,0.0184,0.0206,0.0207,0.0207,0.0193,0.0192,0.0191,0,0,0,0,0,0,0.008,0.0095,0.0097,0.0106,0.0119,0.0136,0.0142,0.0146,0.0156,0.0156,0.0165,0.0168,0.0175,0.0182,0.018,0.0191,0.0196,0.0196,0.0184,0.0183,0.0182,0.0183,0.0186,0,0,0,0,0,0.0077,0.0086,0.01,0.0108,0.0113,0.0126,0.0132,0.014,0.0151,0.0156,0.0163,0.0171,0.0179,0.0183,0.0192,0.0198,0.0222,0.02,0.0199,0.0198,0.0201,0.0252,0.0256,0.0208,0.0208,0.0208,0,0,0.0076,0.0086,0.009,0.0106,0.0116,0.0129,0.013,0.0143,0.015,0.0156,0.0166,0.017,0.018,0.0187,0.0191,0.0192,0.0221,0.0198,0.0198,0.0201,0.0252,0.0257,0.0262,0.0208,0.0208,0.0208,0,0,0.0083,0.0086,0.0098,0.0108,0.0122,0.013,0.0132,0.0148,0.015,0.016,0.0164,0.0168,0.0181,0.0186,0.019,0.0191,0.0217,0.0193,0.0189,0.0238,0.0243,0.0247,0.027,0.0276,0.0192,0.0192,0.0192,0,0.008,0.0099,0.0103,0.0117,0.0126,0.013,0.0144,0.0148,0.0163,0.0164,0.0163,0.018,0.0181,0.0191,0.0185,0.0189,0.0218,0.019,0.0238,0.0243,0.0248,0.027,0.0278,0.0191,0.0191,0.0191,0.0191,0,0.0101,0.0112,0.012,0.0138,0.0145,0.0159,0.0163,0.0166,0.0166,0.017,0.0178,0.0181,0.0194,0.0188,0.0184,0.0211,0.0219,0.0233,0.0241,0.0252,0.0274,0.0283,0.019,0.019,0.019,0.0191,0,0,0.0103,0.0129,0.0132,0.0145,0.0158,0.0169,0.0171,0.0179,0.0189,0.0187,0.0206,0.0193,0.0195,0.02,0.0198,0.0224,0.0266,0.0239,0.0242,0.0262,0.0365,0.0354,0.0362,0.0298,0.03,0.0301,0.0361,0,0.0119,0.015,0.0156,0.018,0.0196,0.0194,0.02,0.0202,0.0206,0.0224,0.0216,0.0237,0.02,0.0216,0.023,0.0274,0.0289,0.0247,0.0351,0.0353,0.0344,0.0372,0.0385,0.0439,0.037,0.0371,0.0372,0,0.0141,0.0159,0.0187,0.0207,0.0213,0.0224,0.0237,0.0244,0.0255,0.026,0.0265,0.0273,0.0294,0.0276,0.0333,0.0314,0.0329,0.0352,0.0356,0.0359,0.0359,0.042,0.0457,0.046,0.0385,0.0384,0.0383,0,0.0151,0.018,0.0203,0.0211,0.0233,0.0239,0.0248,0.0255,0.0273,0.0295,0.0328,0.0336,0.0378,0.0396,0.0413,0.0392,0.0491,0.0474,0.0468,0.0466,0.0503,0.0502,0.0558,0.0512,0.0512,0.0512,0.0512,0,0.0171,0.0189,0.0212,0.0227,0.0255,0.0258,0.0288,0.0292,0.0323,0.0369,0.0354,0.0411,0.0419,0.0464,0.0454,0.0492,0.0524,0.0475,0.0491,0.0495,0.0493,0.0517,0.0512,0.0514,0.0514,0.0513,0.0513,0,0.0183,0.0198,0.0227,0.0253,0.0264,0.0283,0.0324,0.035,0.0372,0.0441,0.046,0.0502,0.0568,0.0557,0.0612,0.0566,0.0601,0.0587,0.0572,0.0584,0.0558,0.0551,0.0624,0.0649,0.0592,0.0593,0.0593,0,0.0197,0.0213,0.0248,0.0274,0.029,0.0322,0.0351,0.0373,0.0412,0.0507,0.0554,0.063,0.0697,0.0743,0.0694,0.0676,0.0654,0.0643,0.0591,0.0568,0.0573,0.0561,0.0576,0.063,0.0631,0.0631,0.0631,0,0.0223,0.0231,0.0257,0.0305,0.0341,0.0383,0.043,0.0471,0.052,0.0599,0.0719,0.0788,0.0823,0.0834,0.0777,0.0741,0.0657,0.0648,0.0653,0.063,0.0598,0.0625,0.0557,0.0635,0.0635,0.0634,0.0634,0.0634,0.0243,0.0264,0.0298,0.0343,0.0387,0.0446,0.0492,0.056,0.0652,0.0785,0.0839,0.096,0.0935,0.0876,0.0826,0.0712,0.0709,0.0666,0.0666,0.066,0.0669,0.0585,0.066,0.066,0.066,0.066,0.066,0,0.0272,0.0295,0.0338,0.0394,0.0446,0.0463,0.0549,0.0611,0.0737,0.0872,0.0992,0.1048,0.1029,0.0944,0.0799,0.0741,0.0717,0.0707,0.0706,0.0725,0.0685,0.067,0.0718,0.0718,0.0718,0.0718,0.0718,0.0718,0.0291,0.033,0.0349,0.0435,0.0478,0.0556,0.061,0.0719,0.0821,0.0987,0.1065,0.1116,0.1056,0.0899,0.0797,0.0766,0.0767,0.074,0.0753,0.072,0.0716,0.0712,0.0698,0.075,0.075,0.0803,0.0803,0.0804]}],[{"header":{"parameterUnit":"m.s-1","parameterCategory":2,"la1":30.2991,"la2":30.254,"lo1":-89.0895,"lo2":-89.0444,"dy":0.0017,"dx":0.0017,"nx":28,"ny":28,"refTime":"2025-06-14T21:00:00:Z","depth":"2","parameterNumber":2,"parameterNumberName":"U-component_of_CURRENTS"},"data":[0,0,0,0,0,0,0,0,0,0,0,0,0,0,0,0,0,0,0,0,0,0,0,0,0,0,0,0,0,0,0,0,0,0,0,0,0,0,0,0,0,0,0,0,0,0,0,0,0,0,0,0,0,0,0,0,0,0,0.1201,0.1202,0,0.1197,0.1196,0.1196,0.1195,0.1196,0.1196,0.1196,0.1204,0.1204,0.1204,0,0,0,0,0,0,0,0,0,0,0,0,0,0.1204,0.1203,0.1201,0.1202,0.1202,0.1197,0.1196,0.1196,0.1195,0.1196,0.1196,0.1197,0.1204,0.1204,0.1204,0,0,0,0,0,0,0,0,0,0,0,0,0,0.1198,0.1203,0.1201,0.1203,0.1204,0.1197,0.1196,0.1196,0.1195,0.1196,0.1196,0.1197,0.1204,0.1204,0.1204,0.1193,0,0,0.1203,0.1203,0,0,0,0,0,0,0,0,0.1198,0.1198,0.1203,0.1203,0.1204,0.12,0.12,0.1197,0.1195,0.1195,0.1196,0.1197,0.1205,0.1205,0.1199,0.1193,0.1194,0.1203,0.1203,0.1203,0.1203,0,0,0,0,0,0,0,0.1199,0.1198,0.1196,0.1203,0.1203,0.1202,0.1202,0.1199,0.1195,0.1195,0.1196,0.12,0.1205,0.1199,0.1199,0.1194,0.1203,0.1203,0.1203,0.1203,0.1248,0.1249,0,0,0,0,0,0,0.1205,0.1198,0.1197,0.1197,0.1206,0.1202,0.1201,0.1198,0.1195,0.1196,0.12,0.12,0.1199,0.1199,0.1199,0.1235,0.1203,0.1203,0.1203,0.1247,0.1248,0.125,0,0,0,0,0,0,0.1205,0.1205,0.1197,0.12,0.12,0.1202,0.1198,0.1198,0.1203,0.1199,0.12,0.1207,0.1199,0.1199,0.121,0.1234,0.1203,0.1203,0.1245,0.1247,0.1249,0.1275,0,0,0,0,0,0,0.1205,0.1205,0.1204,0.12,0.12,0.1197,0.1198,0.1197,0.1205,0.1206,0.1205,0.1206,0.12,0.121,0.121,0.1233,0.1203,0.1244,0.1246,0.1249,0.1273,0.1278,0.1282,0,0,0,0,0,0.1205,0.1203,0.1204,0.1204,0.1199,0.1198,0.1197,0.1198,0.1205,0.1205,0.1212,0.1206,0.1226,0.1211,0.121,0.1233,0.1243,0.1246,0.1248,0.1271,0.1277,0.1282,0,0,0,0,0,0,0.1209,0.1203,0.1204,0.1202,0.1203,0.1199,0.1204,0.1205,0.1208,0.1214,0.1211,0.1212,0.1241,0.1231,0.1214,0.1257,0.1238,0.1241,0.1256,0.1261,0.1266,0.1284,0.1203,0,0,0,0,0,0.1209,0.1203,0.1202,0.1202,0.1207,0.1207,0.1209,0.1209,0.1213,0.1215,0.1221,0.1232,0.125,0.1249,0.1264,0.1269,0.1289,0.1289,0.1294,0.1298,0.1314,0.1391,0.1404,0.1259,0.1259,0.1259,0,0,0.1209,0.1208,0.1204,0.1203,0.1207,0.1217,0.1209,0.1215,0.1217,0.1215,0.123,0.1254,0.126,0.1281,0.1292,0.1272,0.134,0.1302,0.1305,0.1319,0.1395,0.141,0.1422,0.1261,0.1261,0.1261,0,0,0.1211,0.121,0.1208,0.1209,0.1217,0.1226,0.1232,0.1238,0.1232,0.1244,0.126,0.1293,0.1302,0.1317,0.1324,0.136,0.1375,0.1373,0.1395,0.1469,0.1482,0.1494,0.1495,0.1507,0.1361,0.1361,0.1361,0,0.1212,0.1213,0.1209,0.1212,0.1214,0.1236,0.1238,0.124,0.1248,0.1263,0.1254,0.1334,0.132,0.1374,0.1378,0.1371,0.1403,0.1368,0.1476,0.1488,0.15,0.1499,0.1512,0.1363,0.1362,0.1362,0.1362,0,0.1213,0.1217,0.1222,0.1235,0.1232,0.1244,0.1246,0.1262,0.1275,0.1297,0.1357,0.1364,0.1411,0.1416,0.1396,0.148,0.1471,0.1485,0.1461,0.1516,0.1511,0.1524,0.1365,0.1364,0.1364,0.1363,0,0,0.1207,0.1219,0.1221,0.1221,0.1243,0.1238,0.1257,0.1286,0.133,0.1356,0.1409,0.1438,0.1478,0.1489,0.1495,0.1546,0.1611,0.1546,0.1549,0.1545,0.1747,0.159,0.1588,0.1666,0.1669,0.1672,0.1694,0,0.1215,0.1221,0.1221,0.1231,0.1237,0.125,0.1278,0.1306,0.1344,0.1408,0.1445,0.1514,0.1494,0.1531,0.1578,0.1623,0.1655,0.1602,0.1697,0.1698,0.1552,0.1602,0.1448,0.1445,0.1707,0.1709,0.171,0,0.1216,0.1219,0.1222,0.1234,0.1239,0.1265,0.1316,0.1334,0.1432,0.1463,0.155,0.1595,0.1662,0.1643,0.1747,0.1725,0.1732,0.176,0.1762,0.1622,0.1567,0.1442,0.1458,0.1732,0.173,0.1728,0.1727,0,0.1207,0.1216,0.1217,0.1216,0.1247,0.1263,0.1301,0.1382,0.1404,0.1526,0.158,0.1686,0.1737,0.1803,0.1808,0.1805,0.1918,0.1912,0.1776,0.1763,0.1651,0.1621,0.1995,0.1995,0.1995,0.1995,0.1995,0,0.1209,0.1204,0.1225,0.1225,0.1265,0.1271,0.1334,0.1399,0.148,0.1541,0.1624,0.1676,0.1794,0.1847,0.1852,0.1832,0.1945,0.1789,0.1776,0.1646,0.1617,0.189,0.1878,0.1995,0.1995,0.1995,0.1995,0,0.1187,0.1203,0.1203,0.1238,0.1266,0.129,0.1349,0.1389,0.1485,0.1561,0.16,0.17,0.1761,0.1823,0.1917,0.1865,0.1878,0.1839,0.1632,0.1592,0.1657,0.1646,0.1699,0.1694,0.169,0.1687,0.1684,0,0.1174,0.118,0.1213,0.1233,0.1257,0.1298,0.1339,0.1408,0.1437,0.155,0.1578,0.1667,0.1674,0.1717,0.1685,0.1663,0.1767,0.15,0.1452,0.1653,0.1636,0.1631,0.1626,0.1305,0.1299,0.1295,0.1291,0,0.1151,0.1169,0.1173,0.1228,0.1265,0.1276,0.1335,0.1348,0.142,0.1469,0.1504,0.1515,0.1528,0.1426,0.1398,0.1366,0.149,0.1395,0.1725,0.1379,0.1277,0.1261,0.127,0.1249,0.1253,0.1256,0.1258,0.126,0.1144,0.1143,0.117,0.1211,0.124,0.1244,0.1245,0.127,0.1287,0.1308,0.1348,0.1302,0.1293,0.1134,0.108,0.1052,0.1162,0.1122,0.114,0.1163,0.1089,0.0983,0.0882,0.0884,0.0886,0.0887,0.0888,0,0.1125,0.1125,0.1153,0.1171,0.1159,0.1216,0.1222,0.1175,0.1155,0.1154,0.1125,0.0948,0.084,0.0859,0.0727,0.0685,0.0722,0.0666,0.0727,0.0767,0.0803,0.0715,0.0408,0.0406,0.0405,0.0404,0,0,0.111,0.1105,0.1108,0.1083,0.1104,0.1072,0.1065,0.1012,0.0976,0.087,0.081,0.0786,0.0807,0.0602,0.0551,0.0472,0.0628,0.0438,0.0819,0.0931,0.0967,0.1049,0.0955,0,0,0,0,0]},{"header":{"parameterUnit":"m.s-1","parameterCategory":2,"la1":30.2991,"la2":30.254,"lo1":-89.0895,"lo2":-89.0444,"dy":0.0017,"dx":0.0017,"nx":28,"ny":28,"refTime":"2025-06-14T21:00:00:Z","depth":"2","parameterNumber":3,"parameterNumberName":"V-component_of_CURRENTS"},"data":[0,0,0,0,0,0,0,0,0,0,0,0,0,0,0,0,0,0,0,0,0,0,0,0,0,0,0,0,0,0,0,0,0,0,0,0,0,0,0,0,0,0,0,0,0,0,0,0,0,0,0,0,0,0,0,0,0,0,0.0012,0.0012,0,0.0026,0.0026,0.0026,0.0034,0.0033,0.0033,0.0033,0.0044,0.0045,0.0045,0,0,0,0,0,0,0,0,0,0,0,0,0,-0.002,-0.002,0.0011,0.0012,0.0012,0.0026,0.0026,0.0026,0.0034,0.0033,0.0033,0.0033,0.0044,0.0045,0.0045,0,0,0,0,0,0,0,0,0,0,0,0,0,-0.0006,-0.0019,0.0011,0.0017,0.0017,0.0026,0.0026,0.0026,0.0034,0.0033,0.0033,0.0033,0.0044,0.0045,0.0045,0.0049,0,0,0.0047,0.0047,0,0,0,0,0,0,0,0,-0.0007,-0.0005,0.0016,0.0016,0.0017,0.0027,0.0019,0.0034,0.0034,0.0028,0.0033,0.0033,0.0038,0.0039,0.0043,0.005,0.005,0.0047,0.0047,0.0047,0.0047,0,0,0,0,0,0,0,-0.0008,-0.0005,0.0018,0.0016,0.0017,0.0015,0.0017,0.0022,0.0033,0.0028,0.0029,0.003,0.0038,0.0042,0.0043,0.0051,0.0047,0.0047,0.0047,0.0048,0.0066,0.0066,0,0,0,0,0,0,-0.001,-0.0006,0.0017,0.0018,0.0004,0.0015,0.0018,0.0025,0.0034,0.0035,0.003,0.003,0.0041,0.0042,0.0043,0.005,0.0047,0.0048,0.0048,0.0065,0.0066,0.0066,0,0,0,0,0,0,-0.001,-0.0007,0.0017,0.0006,0.0008,0.0016,0.0024,0.0025,0.0028,0.0034,0.0036,0.0031,0.0041,0.0043,0.0047,0.005,0.0048,0.0048,0.0065,0.0066,0.0066,0.0062,0,0,0,0,0,0,-0.0011,-0.0008,-0.0004,0.0006,0.0009,0.0026,0.0024,0.0025,0.0028,0.0029,0.0036,0.0037,0.0041,0.0046,0.0047,0.0051,0.0049,0.0065,0.0065,0.0066,0.0062,0.0063,0.0063,0,0,0,0,0,-0.0012,-0.0003,-0.0003,-0.0001,0.0014,0.0026,0.0028,0.0033,0.0028,0.0034,0.0034,0.0037,0.0049,0.0046,0.0048,0.0052,0.0065,0.0065,0.0066,0.0062,0.0062,0.0063,0,0,0,0,0,0,-0.0016,-0.0001,-0.0002,0.0011,0.0018,0.0027,0.0032,0.0032,0.0036,0.0035,0.0037,0.0039,0.0044,0.0048,0.0045,0.0058,0.0058,0.0059,0.0055,0.0055,0.0056,0.006,0.0049,0,0,0,0,0,-0.0015,-0.0003,0.0006,0.0015,0.0018,0.0023,0.0027,0.0031,0.0036,0.0038,0.004,0.0044,0.0048,0.0051,0.0057,0.0063,0.0079,0.0067,0.0067,0.0067,0.0073,0.0108,0.0112,0.0067,0.0067,0.0067,0,0,-0.0016,-0.0006,-0.0,0.0015,0.002,0.003,0.0026,0.0035,0.0043,0.0038,0.0047,0.0045,0.0049,0.0057,0.006,0.006,0.0087,0.0068,0.0068,0.0073,0.0109,0.0113,0.0117,0.0068,0.0067,0.0067,0,0,-0.0006,-0.0001,0.0013,0.0022,0.0032,0.0034,0.0036,0.0044,0.0048,0.0054,0.0051,0.0052,0.0058,0.0064,0.0066,0.0072,0.0086,0.0071,0.0077,0.0111,0.0115,0.0119,0.0136,0.0141,0.0072,0.0072,0.0072,0,-0.0007,0.0013,0.0018,0.0033,0.0042,0.0036,0.0051,0.0054,0.0061,0.0063,0.0058,0.0064,0.0065,0.0074,0.0073,0.0073,0.009,0.0074,0.0112,0.0116,0.012,0.0137,0.0143,0.0072,0.0072,0.0072,0.0072,0,0.0015,0.0029,0.0037,0.0055,0.0064,0.0075,0.008,0.0084,0.008,0.0079,0.0084,0.0083,0.009,0.0085,0.0079,0.0102,0.0102,0.0108,0.0111,0.0124,0.0141,0.0147,0.0071,0.0071,0.0071,0.0072,0,0,0.0019,0.0048,0.0051,0.0066,0.0078,0.009,0.0098,0.0106,0.0116,0.0108,0.0128,0.0113,0.0107,0.011,0.0104,0.0121,0.0154,0.0123,0.0125,0.0141,0.0221,0.0207,0.0213,0.0169,0.017,0.0171,0.0217,0,0.0034,0.0069,0.0078,0.0105,0.0123,0.0124,0.0131,0.0135,0.0141,0.0157,0.0145,0.016,0.012,0.0131,0.0138,0.0165,0.0173,0.0141,0.0206,0.0207,0.0195,0.0221,0.0215,0.0255,0.0224,0.0225,0.0226,0,0.0055,0.0077,0.0109,0.0136,0.0142,0.0152,0.0173,0.0182,0.0191,0.0199,0.0201,0.0203,0.0218,0.0194,0.0224,0.0208,0.021,0.0217,0.022,0.0215,0.0207,0.0239,0.0268,0.0237,0.0236,0.0235,0.0234,0,0.0063,0.0099,0.0126,0.0137,0.0162,0.0172,0.0177,0.0187,0.0215,0.0235,0.0274,0.0266,0.0301,0.0297,0.0297,0.0275,0.0339,0.0318,0.0298,0.0296,0.0308,0.0305,0.0338,0.0338,0.0338,0.0337,0.0337,0,0.008,0.0103,0.0131,0.0148,0.0176,0.0184,0.0218,0.022,0.026,0.0309,0.0298,0.0358,0.0334,0.0363,0.0335,0.0343,0.0372,0.0307,0.0315,0.0304,0.0301,0.0299,0.0294,0.0339,0.0339,0.0338,0.0338,0,0.0089,0.0107,0.0142,0.0172,0.0183,0.02,0.0252,0.0285,0.0311,0.0391,0.0411,0.0453,0.0487,0.0452,0.0466,0.0414,0.041,0.0397,0.0374,0.0377,0.0329,0.0323,0.0386,0.0387,0.0387,0.0387,0.0387,0,0.0099,0.0118,0.016,0.0187,0.0203,0.0238,0.0269,0.0301,0.0355,0.0459,0.0511,0.0566,0.061,0.0606,0.0528,0.0473,0.0447,0.0417,0.0365,0.0337,0.0338,0.0332,0.0326,0.0377,0.0377,0.0377,0.0377,0,0.012,0.0132,0.0162,0.0212,0.0252,0.0307,0.0358,0.0415,0.0476,0.0557,0.0668,0.0715,0.0701,0.0654,0.0558,0.0508,0.042,0.0413,0.0427,0.0356,0.0329,0.0329,0.0324,0.0376,0.0377,0.0377,0.0377,0.0377,0.0135,0.0157,0.0197,0.0246,0.0297,0.0372,0.0426,0.0505,0.0604,0.0717,0.0757,0.0806,0.074,0.0616,0.0541,0.0435,0.044,0.0381,0.0381,0.0381,0.0363,0.0337,0.0381,0.0381,0.0381,0.0381,0.0381,0,0.016,0.0187,0.0233,0.0297,0.0361,0.038,0.0489,0.0556,0.068,0.0753,0.083,0.0757,0.0709,0.0619,0.0472,0.0392,0.037,0.0349,0.0343,0.0344,0.0345,0.0324,0.0333,0.0332,0.0332,0.0331,0,0,0.0177,0.0219,0.0241,0.034,0.0389,0.0481,0.0546,0.0646,0.0715,0.0793,0.0802,0.0814,0.0724,0.0599,0.0502,0.0421,0.0391,0.039,0.0439,0.0445,0.0446,0.0375,0.0346,0,0,0,0,0]}],[{"header":{"parameterUnit":"m.s-1","parameterCategory":2,"la1":30.2991,"la2":30.254,"lo1":-89.0895,"lo2":-89.0444,"dy":0.0017,"dx":0.0017,"nx":28,"ny":28,"refTime":"2025-06-14T21:00:00:Z","depth":"4","parameterNumber":2,"parameterNumberName":"U-component_of_CURRENTS"},"data":[0,0,0,0,0,0,0,0,0,0,0,0,0,0,0,0,0,0,0,0,0,0,0,0,0,0,0,0,0,0,0,0,0,0,0,0,0,0,0,0,0,0,0,0,0,0,0,0,0,0,0,0,0,0,0,0,0,0,0.0426,0.0426,0,0.0422,0.0422,0.0422,0.0439,0.0439,0.044,0.044,0.0479,0.048,0.048,0,0,0,0,0,0,0,0,0,0,0,0,0,0.0426,0.0426,0.0426,0.0426,0.0426,0.0422,0.0422,0.0422,0.0439,0.0439,0.044,0.0441,0.0479,0.048,0.048,0,0,0,0,0,0,0,0,0,0,0,0,0,0.0424,0.0426,0.0426,0.0435,0.0436,0.0422,0.0422,0.0422,0.0439,0.0439,0.044,0.0441,0.0479,0.048,0.0481,0.0468,0,0,0.0483,0.0483,0,0,0,0,0,0,0,0,0.0424,0.0424,0.0433,0.0434,0.0435,0.0433,0.0436,0.044,0.0438,0.0437,0.044,0.0441,0.0468,0.0469,0.0465,0.047,0.0472,0.0483,0.0483,0.0484,0.0484,0,0,0,0,0,0,0,0.0424,0.0424,0.0424,0.0433,0.0434,0.0431,0.0432,0.0437,0.0447,0.0437,0.0438,0.0439,0.0468,0.0464,0.0466,0.0472,0.0483,0.0484,0.0484,0.0484,0.0546,0.0547,0,0,0,0,0,0,0.0426,0.0424,0.0424,0.0424,0.0432,0.0431,0.0431,0.0432,0.0447,0.0449,0.0438,0.044,0.0462,0.0465,0.0468,0.0503,0.0484,0.0484,0.0485,0.0545,0.0547,0.0548,0,0,0,0,0,0,0.0426,0.0426,0.0424,0.0424,0.0424,0.043,0.043,0.0431,0.0451,0.0447,0.0451,0.0459,0.0463,0.0467,0.0491,0.0503,0.0485,0.0485,0.0544,0.0546,0.0547,0.0542,0,0,0,0,0,0,0.0426,0.0426,0.0432,0.0425,0.0424,0.0423,0.0429,0.0431,0.0449,0.0451,0.0466,0.0469,0.0464,0.049,0.0492,0.0503,0.0486,0.0542,0.0545,0.0547,0.054,0.0543,0.0545,0,0,0,0,0,0.0426,0.0424,0.0433,0.0433,0.0431,0.0423,0.0423,0.0429,0.0449,0.0452,0.0471,0.047,0.0506,0.0491,0.0493,0.0505,0.0541,0.0544,0.0546,0.0539,0.0542,0.0545,0,0,0,0,0,0,0.0432,0.0425,0.0435,0.0433,0.0435,0.0427,0.043,0.0443,0.0459,0.0472,0.0478,0.0482,0.0509,0.0514,0.0497,0.0534,0.0526,0.053,0.052,0.0524,0.0526,0.0518,0.0487,0,0,0,0,0,0.0436,0.0431,0.043,0.0432,0.0434,0.0441,0.0443,0.0451,0.046,0.0469,0.0479,0.0499,0.0517,0.0526,0.0537,0.0552,0.0573,0.0566,0.0569,0.057,0.0568,0.0605,0.0609,0.0557,0.0557,0.0557,0,0,0.0439,0.0436,0.0435,0.0433,0.0437,0.0432,0.0445,0.0453,0.0452,0.0471,0.0481,0.0507,0.0525,0.0541,0.0554,0.0548,0.0603,0.0574,0.0575,0.0572,0.0608,0.0613,0.0617,0.0558,0.0558,0.0558,0,0,0.0436,0.0444,0.0437,0.0438,0.0444,0.0441,0.0451,0.0456,0.0461,0.0481,0.0496,0.0532,0.0554,0.0561,0.0572,0.0599,0.0616,0.0611,0.0611,0.0646,0.065,0.0654,0.0707,0.0716,0.0609,0.0609,0.0609,0,0.044,0.0435,0.0436,0.0431,0.043,0.0449,0.0444,0.0446,0.046,0.0464,0.049,0.0541,0.0562,0.0578,0.0593,0.0602,0.0632,0.0593,0.0648,0.0652,0.0656,0.0709,0.0718,0.0609,0.0609,0.0609,0.0609,0,0.0435,0.0431,0.0429,0.0425,0.0422,0.0425,0.0424,0.043,0.0456,0.0464,0.05,0.0537,0.0567,0.0587,0.0602,0.0637,0.0654,0.0646,0.0634,0.066,0.0716,0.0725,0.0609,0.0609,0.0609,0.0609,0,0,0.0433,0.0424,0.0426,0.0416,0.0421,0.0413,0.0411,0.0407,0.0415,0.045,0.0466,0.0519,0.0553,0.0569,0.0595,0.0634,0.0705,0.0657,0.0658,0.0699,0.0802,0.0684,0.0683,0.0705,0.0706,0.0707,0.0836,0,0.0429,0.0415,0.0412,0.0395,0.0384,0.039,0.0383,0.0387,0.0409,0.0426,0.0472,0.0516,0.0538,0.0581,0.0613,0.0683,0.0728,0.0672,0.0779,0.0783,0.0664,0.0689,0.0711,0.0843,0.0846,0.0847,0.0848,0,0.0421,0.041,0.0399,0.037,0.0367,0.0366,0.0361,0.0363,0.0385,0.0407,0.0449,0.0494,0.0559,0.0586,0.0699,0.0664,0.0735,0.079,0.0795,0.0688,0.0681,0.0809,0.0866,0.0865,0.0864,0.0862,0.0861,0,0.041,0.039,0.038,0.0377,0.036,0.0356,0.0357,0.0369,0.0375,0.0419,0.0449,0.0506,0.0565,0.0647,0.0747,0.0744,0.087,0.0876,0.0836,0.0831,0.0902,0.0896,0.096,0.0959,0.0959,0.0959,0.0958,0,0.0393,0.0379,0.0379,0.0373,0.0363,0.0358,0.0363,0.0366,0.0392,0.0411,0.0455,0.0487,0.0587,0.066,0.0749,0.0806,0.0872,0.0838,0.0846,0.0901,0.0894,0.0911,0.0903,0.0964,0.0963,0.0962,0.0961,0,0.0371,0.0378,0.0361,0.0355,0.0359,0.0359,0.037,0.037,0.0404,0.0435,0.0462,0.0501,0.0591,0.0674,0.0812,0.08,0.0884,0.0891,0.0954,0.0964,0.0833,0.0825,0.0874,0.0871,0.0868,0.0865,0.0864,0,0.0353,0.0352,0.0358,0.0359,0.036,0.0367,0.0369,0.0385,0.039,0.0442,0.0452,0.0533,0.0566,0.0661,0.0736,0.0859,0.0856,0.0882,0.0845,0.0817,0.0821,0.0817,0.0812,0.0859,0.0858,0.0858,0.0857,0,0.0324,0.0344,0.0334,0.0346,0.035,0.0331,0.034,0.0347,0.0375,0.042,0.0449,0.049,0.0553,0.0624,0.0692,0.0783,0.085,0.0853,0.086,0.0826,0.08,0.0805,0.0804,0.0847,0.0848,0.0849,0.085,0,0.0308,0.0304,0.0315,0.0314,0.0319,0.0287,0.0292,0.03,0.0314,0.0387,0.0401,0.0484,0.0549,0.0585,0.0664,0.0708,0.0721,0.0709,0.0724,0.0736,0.0621,0.0563,0.0545,0,0,0,0,0,0.0289,0.0286,0.028,0.0262,0.026,0.0257,0.0263,0.027,0.0327,0.0342,0.0371,0.044,0.0504,0.0535,0.0565,0.0601,0.0717,0.0627,0.0708,0.0793,0.0804,0.0677,0,0,0,0,0,0,0.0279,0.0279,0.0268,0.0221,0.0204,0.0178,0.018,0.0204,0.0215,0.0295,0.0344,0.0402,0.0485,0.0507,0.0559,0.0572,0.0608,0.0688,0.0686,0.0786,0.0797,0.0806,0.0679,0,0,0,0,0]},{"header":{"parameterUnit":"m.s-1","parameterCategory":2,"la1":30.2991,"la2":30.254,"lo1":-89.0895,"lo2":-89.0444,"dy":0.0017,"dx":0.0017,"nx":28,"ny":28,"refTime":"2025-06-14T21:00:00:Z","depth":"4","parameterNumber":3,"parameterNumberName":"V-component_of_CURRENTS"},"data":[0,0,0,0,0,0,0,0,0,0,0,0,0,0,0,0,0,0,0,0,0,0,0,0,0,0,0,0,0,0,0,0,0,0,0,0,0,0,0,0,0,0,0,0,0,0,0,0,0,0,0,0,0,0,0,0,0,0,0.0088,0.0088,0,0.0093,0.0094,0.0094,0.0087,0.0087,0.0087,0.0087,0.0083,0.0083,0.0084,0,0,0,0,0,0,0,0,0,0,0,0,0,0.0055,0.0056,0.0088,0.0088,0.0088,0.0093,0.0094,0.0094,0.0087,0.0087,0.0087,0.0086,0.0083,0.0083,0.0084,0,0,0,0,0,0,0,0,0,0,0,0,0,0.0066,0.0056,0.0088,0.0085,0.0085,0.0093,0.0094,0.0094,0.0087,0.0087,0.0087,0.0086,0.0083,0.0083,0.0084,0.0092,0,0,0.0084,0.0084,0,0,0,0,0,0,0,0,0.0065,0.0067,0.0086,0.0085,0.0085,0.0089,0.0081,0.0093,0.0087,0.0087,0.0087,0.0086,0.0085,0.0085,0.0087,0.0092,0.0092,0.0084,0.0084,0.0084,0.0085,0,0,0,0,0,0,0,0.0065,0.0067,0.009,0.0086,0.0085,0.0078,0.008,0.0083,0.0087,0.0087,0.0086,0.0087,0.0084,0.0087,0.0087,0.0092,0.0084,0.0084,0.0085,0.0085,0.0101,0.0101,0,0,0,0,0,0,0.0065,0.0066,0.009,0.009,0.0074,0.0079,0.0081,0.0088,0.0088,0.0087,0.0087,0.0087,0.0086,0.0086,0.0087,0.0105,0.0084,0.0085,0.0085,0.01,0.0101,0.0101,0,0,0,0,0,0,0.0065,0.0068,0.009,0.0078,0.008,0.008,0.0089,0.0089,0.0089,0.0088,0.0087,0.0087,0.0086,0.0086,0.0087,0.0104,0.0085,0.0085,0.01,0.01,0.0101,0.0136,0,0,0,0,0,0,0.0064,0.0068,0.0072,0.0078,0.0081,0.0099,0.0089,0.0089,0.009,0.0089,0.0088,0.0088,0.0086,0.0087,0.0087,0.0104,0.0085,0.01,0.01,0.0101,0.0134,0.0137,0.014,0,0,0,0,0,0.0063,0.0074,0.0073,0.0076,0.0088,0.0099,0.01,0.0098,0.0091,0.0096,0.009,0.0088,0.0091,0.0087,0.0088,0.0105,0.0099,0.01,0.0101,0.0133,0.0137,0.014,0,0,0,0,0,0,0.0061,0.0075,0.0073,0.0088,0.0093,0.0098,0.0103,0.0099,0.0099,0.0097,0.009,0.009,0.0098,0.0093,0.0089,0.011,0.0095,0.0096,0.012,0.0123,0.0126,0.0135,0.0085,0,0,0,0,0,0.0064,0.0077,0.0084,0.0095,0.0099,0.0099,0.0102,0.0103,0.0104,0.0103,0.0101,0.0099,0.0102,0.0105,0.0106,0.0117,0.0109,0.0128,0.0131,0.0133,0.014,0.0139,0.0143,0.0103,0.0103,0.0103,0,0,0.0064,0.0075,0.008,0.0096,0.0099,0.0114,0.0101,0.011,0.0124,0.0103,0.0117,0.0109,0.0106,0.0119,0.0123,0.0117,0.0139,0.0134,0.0136,0.0142,0.014,0.0144,0.0147,0.0104,0.0104,0.0104,0,0,0.0076,0.0083,0.0098,0.0108,0.0118,0.0123,0.0125,0.0131,0.0136,0.0146,0.0136,0.0136,0.0139,0.0144,0.0146,0.0165,0.0153,0.0163,0.0189,0.0188,0.0191,0.0194,0.0185,0.0187,0.0167,0.0167,0.0167,0,0.0076,0.0099,0.0103,0.0121,0.0134,0.0128,0.0148,0.0155,0.0161,0.0173,0.0155,0.0163,0.0156,0.0178,0.0181,0.0174,0.0165,0.0178,0.0193,0.0195,0.0198,0.0188,0.0189,0.0168,0.0168,0.0168,0.0168,0,0.01,0.0119,0.0129,0.0154,0.0167,0.0183,0.0196,0.0208,0.0207,0.0215,0.0231,0.0215,0.0223,0.0218,0.0203,0.0222,0.0206,0.0195,0.0186,0.0204,0.0192,0.0193,0.0171,0.017,0.017,0.0169,0,0,0.01,0.0138,0.0142,0.0162,0.0187,0.0203,0.0232,0.0261,0.0283,0.0281,0.0305,0.0301,0.0289,0.0289,0.0271,0.0263,0.0263,0.0235,0.0234,0.0229,0.0252,0.0237,0.0236,0.0253,0.0253,0.0254,0.0236,0,0.0118,0.0158,0.0175,0.0216,0.0238,0.0254,0.0286,0.0313,0.0323,0.0344,0.0336,0.0349,0.0319,0.0317,0.0307,0.0271,0.0268,0.0269,0.0233,0.0232,0.0219,0.0238,0.0255,0.0236,0.0237,0.0237,0.0237,0,0.0137,0.0164,0.0204,0.0257,0.0269,0.0294,0.0344,0.0373,0.0405,0.0413,0.0423,0.0412,0.0407,0.0372,0.0337,0.0336,0.0303,0.0271,0.027,0.0246,0.0219,0.0215,0.0238,0.0238,0.0238,0.0238,0.0238,0,0.0137,0.0188,0.0221,0.0238,0.0292,0.0319,0.0351,0.0394,0.0428,0.0455,0.0468,0.0466,0.0451,0.0419,0.0355,0.0347,0.0305,0.0288,0.025,0.0247,0.025,0.0247,0.0276,0.0276,0.0276,0.0276,0.0276,0,0.0153,0.0182,0.0224,0.0244,0.0296,0.0331,0.0387,0.0419,0.0465,0.0501,0.05,0.0505,0.0458,0.0427,0.0376,0.0314,0.0327,0.0261,0.0247,0.0264,0.0263,0.0251,0.0248,0.0276,0.0276,0.0276,0.0276,0,0.0151,0.0176,0.0219,0.0275,0.0297,0.0334,0.0411,0.0455,0.0489,0.053,0.054,0.0534,0.0494,0.0449,0.0384,0.0336,0.0284,0.0262,0.0284,0.027,0.0222,0.0221,0.0222,0.0221,0.0221,0.022,0.022,0,0.0156,0.0175,0.0234,0.0264,0.0291,0.0351,0.0403,0.0463,0.0503,0.0539,0.0553,0.0535,0.052,0.0423,0.037,0.0296,0.0278,0.0248,0.0237,0.0232,0.0219,0.0219,0.0219,0.0219,0.0219,0.0219,0.0219,0,0.0164,0.0179,0.0212,0.0269,0.0321,0.0386,0.0451,0.0481,0.0542,0.0567,0.0564,0.0528,0.0481,0.0414,0.0362,0.0304,0.0265,0.0242,0.0243,0.0232,0.0229,0.0216,0.0216,0.0217,0.0217,0.0217,0.0218,0,0.0166,0.0186,0.0224,0.028,0.0342,0.0403,0.0441,0.0488,0.0532,0.0568,0.0555,0.052,0.05,0.0417,0.0365,0.0315,0.0294,0.0259,0.0258,0.0259,0.0272,0.0273,0.027,0,0,0,0,0,0.0171,0.0195,0.0239,0.0297,0.0358,0.0397,0.0471,0.0505,0.0548,0.0548,0.0558,0.052,0.0444,0.041,0.0359,0.035,0.0284,0.0285,0.0242,0.0208,0.021,0.0217,0,0,0,0,0,0,0.0175,0.0208,0.0232,0.03,0.0344,0.0416,0.0464,0.0496,0.0498,0.0523,0.0488,0.0483,0.0416,0.0472,0.0348,0.0335,0.0293,0.0259,0.0257,0.0207,0.0208,0.021,0.0218,0,0,0,0,0]}]]